{"data":{"norad_id":44723,"epoch":"2026-09-19T23:03:52.674048Z","epoch_age_seconds":60975,"freshness":"FRESH","line1":"1 44723U 19074L   26262.96102632  .00033545  00000+0  85096-3 0  9998","line2":"2 44723  53.0449 344.3486 0004125 354.0990   5.9963 15.39393943378741","mean_motion":15.39393943,"eccentricity":0.0004125,"inclination_deg":53.0449,"raan_deg":344.3486,"arg_perigee_deg":354.099,"mean_anomaly_deg":5.9963,"bstar":0.00085096,"rev_number":37874,"period_min":93.543306867487,"perigee_km":445.08459017831,"apogee_km":450.71607097604,"semimajor_km":6826.0373305772,"source":"CELESTRAK","updated_at":"2026-09-20T09:00:38.218402Z"}}